1484438401.21,4164,5.94,71826.0,-16.41,-17.25,-17.11,0,*52
1484438402.47,4165,5.94,71822.5,-16.41,-17.25,-17.17,0,*55
1484438403.68,4166,5.94,71824.3,-16.41,-17.31,-17.31,0,*57
1484438404.94,4167,5.94,71814.3,-16.43,-17.21,-17.31,0,*55
1484438406.2,4168,5.94,71810.3,-16.41,-17.25,-17.25,0,*59
1484438407.44,4169,6.0,71814.5,-16.43,-17.35,-17.31,0,*5E
1484438408.67,4170,6.0,71820.3,-16.43,-17.31,-17.31,0,*52
1484438409.91,4171,5.94,71814.5,-16.43,-17.31,-17.35,0,*57
1484438411.12,4172,5.94,71800.0,-16.41,-17.31,-17.31,0,*52
1484438412.36,4173,5.94,71794.0,-16.43,-17.31,-17.35,0,*55
1484438413.62,4174,5.94,71792.0,-16.43,-17.31,-17.21,0,*57
1484438414.88,4175,5.94,71794.3,-16.43,-17.31,-17.17,0,*53
1484438416.17,4176,6.0,71794.0,-16.43,-17.21,-17.21,0,*54
1484438417.43,4177,6.0,71796.5,-16.41,-17.11,-17.17,0,*51
1484438418.72,4178,5.94,71794.0,-16.43,-17.17,-17.17,0,*5A
1484438420.0,4179,5.94,71792.5,-16.43,-17.21,-17.17,0,*5E
1484438421.27,4180,6.0,71796.3,-16.41,-17.11,-17.11,0,*5F
1484438422.56,4181,5.94,71796.3,-16.43,-17.21,-17.21,0,*5C
1484438423.85,4182,5.94,71794.8,-16.43,-17.21,-17.21,0,*5F
1484438425.12,4183,5.94,71788.3,-16.41,-17.17,-17.11,0,*5A
1484438426.41,4184,5.94,71792.3,-16.43,-17.21,-17.17,0,*5C
1484438427.7,4185,6.0,71794.5,-16.43,-17.21,-17.07,0,*5C
1484438428.97,4186,5.94,71790.3,-16.41,-17.03,-17.11,0,*5A
1484438430.27,4187,5.94,71794.5,-16.43,-17.17,-17.07,0,*5B
1484438431.57,4188,5.94,71800.3,-16.43,-17.17,-17.03,0,*50
1484438432.87,4189,5.94,71798.3,-16.43,-17.17,-17.07,0,*55
1484438434.17,4190,5.94,71800.8,-16.43,-17.17,-17.07,0,*5D
1484438435.46,4191,5.94,71814.0,-16.43,-17.07,-17.07,0,*5D
1484438436.76,4192,5.94,71808.5,-16.43,-17.07,-17.07,0,*5E
1484438438.06,4193,5.94,71796.5,-16.43,-17.03,-17.07,0,*5B
1484438439.35,4194,5.94,71822.3,-16.43,-17.07,-17.17,0,*59
1484438440.59,4195,6.0,71816.0,-16.41,-17.03,-16.97,0,*57
1484438441.88,4196,6.0,71818.5,-16.43,-17.07,-17.03,0,*5E
1484438443.17,4197,5.94,71816.3,-16.43,-17.03,-17.03,0,*5B
1484438444.41,4198,5.94,71826.8,-16.41,-16.97,-17.03,0,*5A
1484438445.7,4199,5.94,71820.0,-16.43,-17.07,-17.03,0,*51
1484438446.99,4200,5.94,71816.5,-16.43,-17.07,-17.17,0,*57
1484438448.28,4201,6.0,71822.5,-16.43,-17.17,-17.17,0,*57
1484438449.58,4202,5.94,71820.8,-16.43,-17.21,-17.07,0,*50
1484438450.88,4203,5.94,71820.8,-16.43,-17.17,-17.07,0,*54
1484438452.15,4204,5.94,71826.5,-16.41,-17.17,-17.03,0,*55
1484438453.45,4205,6.0,71826.8,-16.43,-17.17,-17.07,0,*52
1484438454.72,4206,6.0,71824.8,-16.41,-17.11,-17.03,0,*51
1484438456.0,4207,5.94,71822.5,-16.43,-17.07,-17.17,0,*50
1484438457.29,4208,6.0,71824.8,-16.43,-17.17,-17.17,0,*5E
1484438458.58,4209,5.94,71818.0,-16.43,-17.21,-17.17,0,*5A
1484438459.87,4210,6.0,71820.5,-16.43,-17.21,-17.21,0,*57
1484438461.14,4211,6.0,71818.0,-16.41,-17.17,-17.17,0,*54
1484438462.43,4212,5.94,71818.3,-16.43,-17.17,-17.17,0,*55
1484438463.69,4213,5.94,71822.8,-16.41,-17.11,-17.17,0,*50
1484438464.95,4214,6.0,71826.5,-16.41,-17.11,-17.11,0,*51
1484438466.22,4215,5.94,71818.5,-16.41,-17.03,-17.11,0,*53
1484438467.51,4216,5.94,71816.5,-16.43,-17.17,-17.17,0,*51
1484438468.77,4217,6.0,71826.8,-16.41,-17.11,-17.11,0,*52
1484438470.04,4218,5.94,71824.8,-16.41,-17.11,-17.11,0,*5D
1484438471.3,4219,5.94,71822.0,-16.41,-17.17,-17.17,0,*5C
1484438472.55,4220,5.94,71822.5,-16.43,-17.35,-17.35,0,*54
1484438473.78,4221,6.0,71832.0,-16.41,-17.31,-17.25,0,*52
1484438475.02,4222,5.94,71830.0,-16.43,-17.35,-17.31,0,*52
1484438476.23,4223,5.94,71834.8,-16.41,-17.31,-17.31,0,*55
1484438477.47,4224,5.94,71830.5,-16.43,-17.31,-17.35,0,*54
1484438478.7,4225,6.0,71828.5,-16.43,-17.31,-17.31,0,*51
1484438479.93,4226,5.94,71822.3,-16.43,-17.31,-17.31,0,*52
1484438481.13,4227,5.94,71818.5,-16.45,-17.31,-17.31,0,*55
1484438482.39,4228,5.94,71818.5,-16.43,-17.21,-17.31,0,*5D
1484438483.65,4229,5.94,71820.5,-16.43,-17.21,-17.31,0,*5C
1484438484.94,4230,5.94,71818.0,-16.43,-17.21,-17.11,0,*56
1484438486.23,4231,6.0,71820.3,-16.43,-17.07,-17.21,0,*50
1484438487.53,4232,5.94,71812.5,-16.43,-17.17,-17.21,0,*52
1484438488.82,4233,5.94,71814.0,-16.43,-17.17,-17.17,0,*56
1484438490.12,4234,5.94,71820.5,-16.43,-17.17,-17.07,0,*50
1484438491.42,4235,6.0,71828.3,-16.43,-17.17,-17.07,0,*51
1484438492.72,4236,6.0,71830.8,-16.43,-17.07,-17.07,0,*53
1484438494.02,4237,5.94,71826.3,-16.43,-17.17,-17.07,0,*53
1484438495.32,4238,6.0,71822.8,-16.43,-17.07,-17.07,0,*5D
1484438496.61,4239,5.94,71820.5,-16.43,-17.17,-17.21,0,*59
1484438497.9,4240,5.94,71832.3,-16.43,-17.17,-17.17,0,*52
1484438499.19,4241,6.0,71822.5,-16.43,-17.21,-17.17,0,*56
1484438500.48,4242,6.0,71824.0,-16.43,-17.21,-17.21,0,*50
1484438501.74,4243,5.94,71818.0,-16.41,-17.11,-17.03,0,*50
1484438503.04,4244,5.94,71832.8,-16.43,-17.17,-17.07,0,*57
1484438504.34,4245,6.0,71830.3,-16.43,-17.21,-17.07,0,*53
1484438505.64,4246,6.0,71834.3,-16.43,-17.07,-17.07,0,*54
1484438506.94,4247,5.94,71826.8,-16.43,-17.17,-17.07,0,*54
1484438508.24,4248,6.0,71824.0,-16.43,-17.17,-17.07,0,*5B
1484438509.5,4249,5.94,71822.8,-16.41,-17.11,-17.17,0,*5F
1484438510.79,4250,6.0,71820.0,-16.43,-17.17,-17.17,0,*53
1484438512.08,4251,6.0,71826.0,-16.43,-17.21,-17.17,0,*57
1484438513.37,4252,5.94,71822.8,-16.43,-17.21,-17.21,0,*51
1484438514.63,4253,5.94,71822.5,-16.43,-17.31,-17.21,0,*51
1484438515.89,4254,5.94,71818.8,-16.43,-17.21,-17.31,0,*56
1484438517.14,4255,6.0,71818.3,-16.43,-17.35,-17.35,0,*56
1484438518.39,4256,6.0,71818.8,-16.43,-17.35,-17.35,0,*55
1484438519.64,4257,5.94,71822.0,-16.43,-17.35,-17.35,0,*54
1484438520.88,4258,6.0,71824.8,-16.43,-17.35,-17.35,0,*5B
1484438522.13,4259,6.0,71828.0,-16.43,-17.35,-17.35,0,*5A
1484438523.35,4260,5.94,71824.3,-16.45,-17.35,-17.35,0,*56
1484438524.57,4261,5.94,71824.0,-16.45,-17.35,-17.35,0,*57
1484438525.78,4262,6.0,71822.8,-16.45,-17.35,-17.31,0,*50
1484438527.0,4263,6.0,71826.5,-16.45,-17.35,-17.35,0,*55
1484438528.22,4264,5.94,71820.3,-16.45,-17.35,-17.31,0,*56
1484438529.44,4265,6.0,71826.3,-16.45,-17.35,-17.35,0,*53
1484438530.67,4266,5.94,71824.5,-16.45,-17.31,-17.21,0,*51
1484438531.93,4267,6.0,71822.5,-16.45,-17.21,-17.21,0,*51
1484438533.22,4268,5.94,71822.0,-16.43,-17.21,-17.21,0,*58
1484438534.48,4269,6.0,71820.0,-16.41,-17.11,-17.17,0,*5D
1484438535.77,4270,5.94,71816.0,-16.43,-17.21,-17.17,0,*54
1484438537.02,4271,5.94,71828.3,-16.43,-17.35,-17.35,0,*50
1484438538.22,4272,5.94,71826.8,-16.45,-17.31,-17.31,0,*55
1484438539.43,4273,5.94,71830.8,-16.45,-17.31,-17.35,0,*50
1484438540.65,4274,5.94,71838.0,-16.45,-17.35,-17.35,0,*53
1484438541.88,4275,6.0,71830.3,-16.45,-17.35,-17.35,0,*52
1484438543.09,4276,5.94,71828.0,-16.45,-17.31,-17.35,0,*55
1484438544.29,4277,5.94,71824.8,-16.45,-17.31,-17.31,0,*50
1484438545.5,4278,5.94,71836.5,-16.45,-17.31,-17.31,0,*5F
1484438546.73,4279,5.94,71834.3,-16.45,-17.31,-17.21,0,*5F
1484438547.99,4280,5.94,71828.5,-16.45,-17.21,-17.21,0,*58
1484438549.22,4281,6.0,71834.8,-16.45,-17.31,-17.21,0,*58
1484438550.46,4282,6.0,71840.0,-16.45,-17.21,-17.31,0,*5B
1484438551.71,4283,6.0,71842.0,-16.49,-17.21,-17.35,0,*52
1484438552.94,4284,6.0,71838.0,-16.45,-17.25,-17.31,0,*59
1484438554.17,4285,5.94,71836.3,-16.45,-17.31,-17.17,0,*59
1484438555.43,4286,5.94,71834.5,-16.45,-17.21,-17.21,0,*5E
1484438556.67,4287,6.0,71832.8,-16.45,-17.21,-17.31,0,*5E
1484438557.87,4288,5.94,71820.8,-16.45,-17.31,-17.31,0,*50
1484438559.07,4289,6.0,71818.8,-16.45,-17.31,-17.31,0,*51
1484438560.34,4290,5.94,71816.3,-16.49,-17.25,-17.25,0,*55
1484438561.6,4291,5.94,71822.8,-16.45,-17.17,-17.17,0,*58
1484438562.87,4292,6.0,71828.8,-16.49,-17.25,-17.21,0,*53
1484438564.13,4293,6.0,71828.0,-16.45,-17.21,-17.21,0,*5A
1484438565.4,4294,6.0,71830.5,-16.45,-17.17,-17.07,0,*5C
1484438566.67,4295,5.94,71830.3,-16.45,-17.17,-17.17,0,*5C
1484438567.93,4296,5.94,71826.8,-16.45,-17.21,-17.17,0,*5A
1484438569.19,4297,5.94,71838.8,-16.45,-17.17,-17.17,0,*5E
1484438570.45,4298,6.0,71834.5,-16.45,-17.21,-17.17,0,*54
1484438571.72,4299,5.94,71826.8,-16.45,-17.17,-17.17,0,*50
1484438572.98,4300,5.94,71826.0,-16.45,-17.21,-17.17,0,*54
1484438574.25,4301,5.94,71822.3,-16.45,-17.17,-17.21,0,*55
1484438575.49,4302,6.0,71822.0,-16.49,-17.35,-17.17,0,*5F
1484438576.75,4303,5.94,71816.0,-16.45,-17.21,-17.21,0,*52
1484438578.0,4304,5.94,71808.8,-16.49,-17.25,-17.35,0,*58
1484438579.23,4305,6.0,71800.5,-16.45,-17.31,-17.17,0,*50
1484438580.46,4306,5.94,71806.8,-16.45,-17.31,-17.21,0,*56
1484438581.73,4307,5.94,71808.0,-16.49,-17.21,-17.21,0,*5A
1484438582.97,4308,5.94,71810.0,-16.49,-17.35,-17.25,0,*54
1484438584.17,4309,5.94,71806.3,-16.45,-17.31,-17.31,0,*58
1484438585.37,4310,5.94,71808.3,-16.45,-17.31,-17.31,0,*50
1484438586.58,4311,5.94,71812.5,-16.45,-17.31,-17.31,0,*51
1484438587.78,4312,5.94,71812.0,-16.45,-17.31,-17.31,0,*52
1484438589.01,4313,6.0,71808.5,-16.45,-17.21,-17.31,0,*52
1484438590.28,4314,5.94,71814.0,-16.49,-17.25,-17.21,0,*5C
1484438591.54,4315,5.94,71812.8,-16.45,-17.21,-17.21,0,*55
1484438592.81,4316,6.0,71820.5,-16.45,-17.21,-17.21,0,*56
1484438594.07,4317,6.0,71822.3,-16.45,-17.21,-17.17,0,*52
1484438595.36,4318,5.94,71810.8,-16.43,-17.21,-17.17,0,*5B
1484438596.62,4319,5.94,71796.3,-16.49,-17.21,-17.21,0,*55
1484438597.89,4320,6.0,71786.3,-16.49,-17.21,-17.25,0,*5B
1484438599.15,4321,5.94,71786.3,-16.49,-17.21,-17.25,0,*5A
1484438600.42,4322,5.94,71808.3,-16.49,-17.25,-17.11,0,*5A
1484438601.69,4323,5.94,71828.3,-16.45,-17.17,-17.07,0,*51
1484438602.96,4324,5.94,71838.3,-16.45,-17.17,-17.03,0,*52
1484438604.22,4325,6.0,71836.3,-16.45,-17.17,-17.17,0,*56
1484438605.49,4326,5.94,71836.5,-16.49,-17.25,-17.25,0,*59
1484438606.75,4327,5.94,71832.8,-16.49,-17.25,-17.21,0,*5C
1484438608.02,4328,5.94,71830.5,-16.49,-17.25,-17.21,0,*53
1484438609.28,4329,5.94,71818.8,-16.49,-17.25,-17.21,0,*52
1484438610.55,4330,5.94,71822.0,-16.45,-17.17,-17.21,0,*57
1484438611.82,4331,5.94,71822.8,-16.49,-17.17,-17.21,0,*5A
1484438613.08,4332,5.94,71818.5,-16.49,-17.11,-17.11,0,*5C
1484438614.35,4333,6.0,71812.3,-16.49,-17.11,-17.11,0,*5D
1484438615.61,4334,5.94,71818.5,-16.49,-17.11,-17.11,0,*5A
1484438616.88,4335,5.94,71820.0,-16.49,-17.07,-17.11,0,*5C
1484438618.14,4336,5.94,71824.0,-16.45,-17.07,-17.03,0,*50
1484438619.41,4337,5.94,71830.0,-16.45,-17.03,-17.07,0,*51
1484438620.68,4338,5.94,71828.0,-16.45,-17.07,-17.03,0,*5E
1484438621.95,4339,5.94,71826.8,-16.49,-17.11,-17.07,0,*50
1484438623.21,4340,5.94,71828.5,-16.49,-17.11,-17.11,0,*59
1484438624.44,4341,6.0,71828.3,-16.45,-17.07,-16.93,0,*58
1484438625.71,4342,5.94,71828.0,-16.45,-17.07,-17.03,0,*53
1484438626.98,4343,5.94,71826.5,-16.45,-17.07,-17.07,0,*56
1484438628.25,4344,5.94,71826.5,-16.45,-17.03,-17.03,0,*51
1484438629.52,4345,6.0,71818.3,-16.49,-17.07,-17.07,0,*5C
1484438630.79,4346,5.94,71818.3,-16.49,-17.07,-17.11,0,*58
1484438632.05,4347,5.94,71820.3,-16.45,-17.07,-17.03,0,*56
1484438633.32,4348,5.94,71820.0,-16.49,-17.07,-17.07,0,*51
1484438634.6,4349,6.0,71828.3,-16.45,-17.03,-17.07,0,*58
1484438635.86,4350,5.94,71824.5,-16.49,-17.03,-17.03,0,*58
1484438637.13,4351,5.94,71822.3,-16.45,-17.03,-17.03,0,*55
1484438638.4,4352,5.94,71820.0,-16.49,-17.11,-17.07,0,*5D
1484438639.67,4353,6.0,71826.3,-16.49,-17.11,-17.07,0,*5C
1484438640.94,4354,5.94,71828.3,-16.49,-17.03,-17.07,0,*58
1484438642.21,4355,5.94,71832.8,-16.49,-17.07,-17.11,0,*5A
1484438643.48,4356,5.94,71836.3,-16.45,-17.03,-17.07,0,*56
1484438644.71,4357,5.94,71836.5,-16.45,-17.03,-16.93,0,*5B
1484438645.97,4358,5.94,71842.8,-16.45,-17.03,-17.03,0,*5C
1484438647.24,4359,5.94,71832.5,-16.45,-17.07,-17.03,0,*59
1484438648.47,4360,5.94,71830.5,-16.45,-17.07,-16.93,0,*5B
1484438649.74,4361,5.94,71832.8,-16.45,-17.07,-17.03,0,*52
1484438651.01,4362,5.94,71838.8,-16.45,-17.07,-17.07,0,*55
1484438652.28,4363,5.94,71840.3,-16.45,-17.07,-17.07,0,*54
1484438653.55,4364,5.94,71840.0,-16.45,-17.03,-17.07,0,*57
1484438654.82,4365,5.94,71842.8,-16.49,-17.21,-17.07,0,*5A
1484438656.09,4366,5.94,71846.5,-16.45,-17.21,-17.17,0,*54
1484438657.35,4367,5.94,71842.8,-16.45,-17.21,-17.17,0,*55
1484438658.61,4368,5.94,71828.8,-16.45,-17.21,-17.17,0,*5A
1484438659.87,4369,5.94,71830.5,-16.45,-17.17,-17.17,0,*5E
1484438661.13,4370,5.94,71832.5,-16.45,-17.21,-17.21,0,*56
1484438662.4,4371,5.94,71832.3,-16.45,-17.21,-17.21,0,*57
1484438663.6,4372,5.94,71828.8,-16.45,-17.31,-17.31,0,*54
1484438664.85,4373,5.94,71834.8,-16.49,-17.25,-17.35,0,*58
1484438666.11,4374,5.94,71836.0,-16.45,-17.21,-17.21,0,*52
1484438667.38,4375,5.94,71836.0,-16.49,-17.25,-17.21,0,*5B
1484438668.64,4376,5.94,71832.0,-16.45,-17.21,-17.17,0,*55
1484438669.9,4377,5.94,71832.8,-16.45,-17.21,-17.21,0,*51
1484438671.17,4378,5.94,71828.8,-16.49,-17.25,-17.11,0,*55
1484438672.44,4379,5.94,71828.3,-16.49,-17.21,-17.11,0,*50
1484438673.7,4380,5.94,71828.3,-16.45,-17.21,-17.21,0,*59
1484438674.97,4381,5.94,71824.3,-16.45,-17.17,-17.21,0,*5D
1484438676.2,4382,5.94,71830.3,-16.45,-17.31,-17.21,0,*5A
1484438677.45,4383,5.94,71824.8,-16.49,-17.41,-17.35,0,*55
1484438678.67,4384,5.94,71826.8,-16.49,-17.35,-17.35,0,*51
1484438679.92,4385,5.94,71828.5,-16.49,-17.41,-17.35,0,*53
1484438681.15,4386,5.94,71826.5,-16.49,-17.35,-17.35,0,*53
1484438682.42,4387,5.94,71826.0,-16.49,-17.41,-17.41,0,*52
1484438683.67,4388,5.94,71820.5,-16.45,-17.45,-17.35,0,*56
1484438684.94,4389,5.94,71826.3,-16.49,-17.45,-17.41,0,*58
1484438686.19,4390,5.94,71830.5,-16.49,-17.41,-17.35,0,*57
1484438687.46,4391,5.94,71822.3,-16.49,-17.41,-17.41,0,*55
1484438688.67,4392,5.94,71822.0,-16.45,-17.31,-17.35,0,*5E
1484438689.92,4393,5.94,71814.8,-16.49,-17.41,-17.35,0,*54
1484438691.17,4394,5.94,71824.0,-16.49,-17.41,-17.35,0,*53
1484438692.4,4395,5.94,71822.8,-16.49,-17.35,-17.35,0,*51
1484438693.61,4396,5.94,71826.0,-16.45,-17.35,-17.31,0,*5A
1484438694.83,4397,5.94,71822.0,-16.45,-17.35,-17.35,0,*5F
1484438696.09,4398,5.94,71820.8,-16.45,-17.21,-17.21,0,*50
1484438697.36,4399,6.0,71826.0,-16.49,-17.21,-17.21,0,*5D
1484438698.62,4400,5.94,71824.3,-16.49,-17.25,-17.25,0,*5A
1484438699.85,4401,5.94,71820.0,-16.49,-17.35,-17.35,0,*5B
1484438701.07,4402,5.94,71812.3,-16.49,-17.35,-17.35,0,*58
1484438702.29,4403,5.94,71820.0,-16.45,-17.35,-17.35,0,*55
1484438703.56,4404,5.94,71826.0,-16.49,-17.41,-17.41,0,*5E
1484438704.81,4405,5.94,71824.0,-16.49,-17.41,-17.35,0,*5C
1484438706.06,4406,5.94,71826.8,-16.49,-17.35,-17.41,0,*5F
1484438707.3,4407,5.94,71820.5,-16.49,-17.35,-17.41,0,*5E
1484438708.57,4408,5.94,71820.8,-16.49,-17.41,-17.41,0,*52
1484438709.82,4409,5.94,71822.5,-16.49,-17.41,-17.35,0,*50
1484438711.07,4410,5.94,71826.5,-16.49,-17.41,-17.35,0,*58
1484438712.32,4411,5.94,71822.8,-16.49,-17.35,-17.41,0,*59
1484438713.59,4412,5.94,71830.3,-16.51,-17.41,-17.35,0,*53
1484438714.86,4413,5.94,71826.3,-16.51,-17.35,-17.41,0,*52
1484438716.12,4414,5.94,71824.3,-16.51,-17.35,-17.35,0,*56
1484438717.39,4415,5.94,71824.8,-16.51,-17.41,-17.35,0,*54
1484438718.69,4416,5.94,71828.3,-16.51,-17.41,-17.41,0,*54
1484438719.94,4417,5.94,71824.8,-16.49,-17.35,-17.41,0,*5F
1484438721.18,4418,5.94,71818.8,-16.49,-17.35,-17.41,0,*50
1484438722.45,4419,5.94,71820.0,-16.49,-17.41,-17.41,0,*52
1484438723.66,4420,5.94,71822.0,-16.45,-17.31,-17.35,0,*50
1484438724.91,4421,5.94,71818.5,-16.49,-17.41,-17.35,0,*5A
1484438726.21,4422,5.94,71816.0,-16.51,-17.41,-17.41,0,*53
1484438727.48,4423,5.94,71816.3,-16.49,-17.41,-17.41,0,*5B
1484438728.72,4424,5.94,71816.5,-16.49,-17.35,-17.25,0,*5D
1484438729.99,4425,6.0,71820.5,-16.51,-17.35,-17.41,0,*57
1484438731.29,4426,6.0,71816.8,-16.51,-17.41,-17.41,0,*57
1484438732.59,4427,5.94,71818.0,-16.51,-17.41,-17.41,0,*56
1484438733.87,4428,5.94,71820.8,-16.51,-17.41,-17.35,0,*5A
1484438735.14,4429,5.94,71820.8,-16.51,-17.41,-17.35,0,*5B
1484438736.43,4430,5.94,71824.0,-16.53,-17.41,-17.45,0,*56
1484438737.73,4431,5.94,71826.8,-16.51,-17.41,-17.41,0,*51
1484438739.01,4432,5.94,71824.0,-16.51,-17.41,-17.35,0,*51
1484438740.29,4433,5.94,71822.5,-16.53,-17.41,-17.41,0,*51
1484438741.59,4434,6.0,71820.8,-16.51,-17.41,-17.41,0,*54
1484438742.86,4435,5.94,71824.0,-16.51,-17.35,-17.41,0,*56
1484438744.15,4436,5.94,71830.8,-16.53,-17.45,-17.45,0,*54
1484438745.44,4437,5.94,71830.3,-16.51,-17.41,-17.41,0,*57
1484438746.72,4438,5.94,71828.0,-16.51,-17.35,-17.41,0,*5B
1484438748.01,4439,5.94,71828.3,-16.51,-17.41,-17.41,0,*59
1484438749.29,4440,5.94,71828.3,-16.51,-17.41,-17.35,0,*54
1484438750.57,4441,5.94,71832.3,-16.51,-17.25,-17.35,0,*57
1484438751.81,4442,5.94,71824.3,-16.49,-17.35,-17.25,0,*5D
1484438753.08,4443,5.94,71826.5,-16.51,-17.35,-17.41,0,*57
1484438754.36,4444,5.94,71824.0,-16.53,-17.41,-17.41,0,*51
1484438755.65,4445,5.94,71822.5,-16.51,-17.25,-17.25,0,*52
1484438756.92,4446,5.94,71826.3,-16.51,-17.35,-17.25,0,*50
1484438758.16,4447,6.0,71822.3,-16.49,-17.35,-17.25,0,*58
1484438759.41,4448,5.94,71814.3,-16.51,-17.35,-17.35,0,*5F
1484438760.66,4449,5.94,71810.3,-16.51,-17.35,-17.35,0,*5E
1484438761.92,4450,5.94,71814.3,-16.51,-17.35,-17.35,0,*56
1484438763.17,4451,5.94,71824.0,-16.51,-17.35,-17.35,0,*57
1484438764.41,4452,5.94,71830.3,-16.53,-17.35,-17.35,0,*56
1484438765.69,4453,6.0,71830.0,-16.53,-17.45,-17.45,0,*57
1484438766.98,4454,5.94,71834.0,-16.53,-17.45,-17.45,0,*50
1484438768.25,4455,5.94,71830.3,-16.51,-17.35,-17.41,0,*50
1484438769.54,4456,6.0,71834.0,-16.53,-17.41,-17.45,0,*56
1484438770.8,4457,5.94,71832.5,-16.51,-17.35,-17.25,0,*50
1484438772.07,4458,5.94,71816.8,-16.49,-17.41,-17.25,0,*55
1484438773.32,4459,5.94,71812.3,-16.51,-17.35,-17.35,0,*5F
1484438774.57,4460,5.94,71812.0,-16.51,-17.35,-17.35,0,*55
1484438775.85,4461,5.94,71812.5,-16.51,-17.41,-17.35,0,*57
1484438777.15,4462,5.94,71818.5,-16.51,-17.41,-17.41,0,*57
1484438778.4,4463,5.94,71820.0,-16.51,-17.35,-17.35,0,*56
1484438779.65,4464,5.94,71824.8,-16.51,-17.35,-17.35,0,*51
1484438780.91,4465,5.94,71828.0,-16.53,-17.41,-17.31,0,*55
1484438782.18,4466,5.94,71816.0,-16.51,-17.25,-17.35,0,*52
1484438783.44,4467,5.94,71810.5,-16.53,-17.41,-17.31,0,*57
1484438784.72,4468,5.94,71816.5,-16.53,-17.45,-17.41,0,*5B
1484438786.01,4469,5.94,71816.0,-16.53,-17.41,-17.41,0,*5E
1484438787.26,4470,5.94,71818.8,-16.51,-17.35,-17.35,0,*54
1484438788.56,4471,5.94,71822.3,-16.51,-17.41,-17.41,0,*55
1484438789.85,4472,5.94,71822.5,-16.53,-17.45,-17.45,0,*54
1484438791.13,4473,5.94,71822.8,-16.53,-17.45,-17.45,0,*55
1484438792.42,4474,5.94,71826.5,-16.53,-17.41,-17.45,0,*56
1484438793.7,4475,5.94,71828.0,-16.53,-17.41,-17.41,0,*53
1484438794.96,4476,5.94,71830.3,-16.53,-17.41,-17.31,0,*57
1484438796.23,4477,5.94,71832.5,-16.51,-17.35,-17.25,0,*52
1484438797.5,4478,5.94,71834.3,-16.51,-17.35,-17.25,0,*5D
1484438798.75,4479,5.94,71828.5,-16.53,-17.41,-17.31,0,*58
1484438800.02,4480,5.94,71824.5,-16.51,-17.35,-17.25,0,*5A
1484438801.29,4481,6.0,71832.8,-16.51,-17.35,-17.25,0,*5B
1484438802.57,4482,5.94,71830.0,-16.53,-17.41,-17.45,0,*5F
1484438803.83,4483,5.94,71828.3,-16.51,-17.35,-17.35,0,*58
1484438805.11,4484,5.94,71832.0,-16.53,-17.45,-17.45,0,*5D
1484438806.4,4485,6.0,71836.5,-16.53,-17.45,-17.45,0,*5C
1484438807.68,4486,5.94,71828.0,-16.53,-17.45,-17.45,0,*5F
1484438808.97,4487,5.94,71824.0,-16.53,-17.45,-17.41,0,*5A
1484438810.23,4488,5.94,71830.3,-16.55,-17.45,-17.41,0,*53
1484438811.52,4489,5.94,71820.5,-16.53,-17.41,-17.41,0,*50
1484438812.77,4490,5.94,71826.5,-16.53,-17.31,-17.41,0,*5F
1484438814.02,4491,5.94,71826.8,-16.53,-17.31,-17.25,0,*5C
1484438815.31,4492,5.94,71834.3,-16.51,-17.21,-17.25,0,*5C
1484438816.6,4493,5.94,71832.8,-16.53,-17.17,-17.17,0,*5B
1484438817.87,4494,5.94,71832.5,-16.53,-17.11,-17.17,0,*5A
1484438819.16,4495,5.94,71814.8,-16.53,-17.17,-17.17,0,*5D
1484438820.44,4496,5.94,71812.8,-16.53,-17.25,-17.17,0,*5F
1484438821.72,4497,5.94,71808.3,-16.53,-17.17,-17.17,0,*5F
1484438823.0,4498,5.94,71812.0,-16.53,-17.17,-17.17,0,*50
1484438824.29,4499,5.94,71816.3,-16.53,-17.17,-17.17,0,*51
1484438825.57,4500,5.94,71808.3,-16.53,-17.17,-17.17,0,*50
1484438826.87,4501,6.0,71816.5,-16.51,-17.21,-17.07,0,*57
1484438828.15,4502,5.94,71820.3,-16.53,-17.11,-17.17,0,*54
1484438829.44,4503,5.94,71812.8,-16.51,-17.11,-17.11,0,*51
1484438830.73,4504,5.94,71828.5,-16.53,-17.17,-17.11,0,*52
1484438832.0,4505,5.94,71834.8,-16.53,-17.11,-17.17,0,*53
1484438833.29,4506,5.94,71834.0,-16.53,-17.17,-17.11,0,*50
1484438834.57,4507,5.94,71838.5,-16.53,-17.25,-17.11,0,*50
1484438835.87,4508,5.94,71838.5,-16.51,-17.11,-17.07,0,*5D
1484438837.15,4509,5.94,71832.5,-16.53,-17.25,-17.25,0,*59
1484438838.44,4510,5.94,71832.3,-16.51,-17.21,-17.11,0,*50
1484438839.74,4511,5.94,71844.5,-16.51,-17.21,-17.11,0,*51
1484438841.02,4512,5.94,71830.3,-16.53,-17.17,-17.17,0,*53
1484438842.3,4513,5.94,71830.8,-16.53,-17.25,-17.17,0,*53
1484438843.58,4514,5.94,71848.0,-16.53,-17.25,-17.17,0,*54
1484438844.86,4515,5.94,71842.8,-16.53,-17.17,-17.25,0,*55
1484438846.16,4516,5.94,71834.3,-16.51,-17.21,-17.11,0,*56
1484438847.45,4517,5.94,71838.8,-16.51,-17.25,-17.21,0,*50
1484438848.71,4518,5.94,71846.5,-16.53,-17.41,-17.31,0,*5E
1484438849.93,4519,5.94,71836.5,-16.53,-17.31,-17.31,0,*58
1484438851.15,4520,5.94,71842.8,-16.53,-17.31,-17.31,0,*52
1484438852.42,4521,5.94,71834.5,-16.51,-17.35,-17.25,0,*50
1484438853.67,4522,5.94,71836.3,-16.51,-17.35,-17.35,0,*52
1484438854.93,4523,6.0,71832.0,-16.53,-17.41,-17.31,0,*56
1484438856.18,4524,5.94,71826.3,-16.53,-17.45,-17.31,0,*55
1484438857.47,4525,5.94,71828.5,-16.53,-17.41,-17.45,0,*53
1484438858.76,4526,5.94,71832.3,-16.53,-17.41,-17.41,0,*54
1484438860.01,4527,5.94,71834.5,-16.53,-17.45,-17.31,0,*56
1484438861.27,4528,5.94,71832.5,-16.53,-17.41,-17.31,0,*5D
1484438862.53,4529,5.94,71834.3,-16.53,-17.41,-17.31,0,*5C
1484438863.77,4530,5.94,71826.0,-16.49,-17.35,-17.25,0,*59
1484438865.02,4531,5.94,71820.3,-16.53,-17.41,-17.31,0,*55
1484438866.25,4532,5.94,71816.3,-16.53,-17.31,-17.31,0,*51
1484438867.53,4533,5.94,71820.0,-16.53,-17.41,-17.41,0,*50
1484438868.79,4534,5.94,71830.0,-16.53,-17.41,-17.31,0,*50
1484438870.08,4535,5.94,71824.3,-16.53,-17.41,-17.41,0,*56
1484438871.36,4536,5.94,71824.3,-16.53,-17.41,-17.41,0,*55
1484438872.62,4537,6.0,71834.3,-16.53,-17.41,-17.31,0,*53
1484438873.9,4538,5.94,71830.0,-16.53,-17.25,-17.41,0,*59
1484438875.16,4539,5.94,71832.3,-16.53,-17.25,-17.31,0,*5F
1484438876.39,4540,5.94,71828.8,-16.55,-17.41,-17.31,0,*55
1484438877.67,4541,5.94,71820.0,-16.53,-17.41,-17.17,0,*56
1484438878.92,4542,5.94,71814.8,-16.53,-17.31,-17.25,0,*53
1484438880.12,4543,5.94,71814.8,-16.55,-17.31,-17.31,0,*51
1484438881.35,4544,5.94,71822.8,-16.55,-17.41,-17.31,0,*51
1484438882.58,4545,5.94,71830.0,-16.55,-17.31,-17.41,0,*50
1484438883.84,4546,5.94,71826.8,-16.55,-17.25,-17.25,0,*54
1484438885.07,4547,5.94,71834.5,-16.55,-17.31,-17.25,0,*50
1484438886.3,4548,5.94,71828.8,-16.55,-17.25,-17.31,0,*5F
1484438887.53,4549,5.94,71832.0,-16.55,-17.25,-17.31,0,*5E
1484438888.73,4550,5.94,71830.8,-16.55,-17.31,-17.31,0,*53
1484438889.99,4551,5.94,71828.3,-16.55,-17.45,-17.45,0,*52
1484438891.27,4552,5.94,71830.3,-16.53,-17.45,-17.41,0,*53
1484438892.56,4553,5.94,71836.5,-16.53,-17.45,-17.45,0,*56
1484438893.85,4554,5.94,71836.5,-16.53,-17.41,-17.41,0,*51
1484438895.13,4555,5.94,71842.0,-16.53,-17.45,-17.41,0,*54
1484438896.39,4556,6.0,71842.5,-16.53,-17.41,-17.49,0,*5B
1484438897.68,4557,5.94,71844.3,-16.53,-17.41,-17.45,0,*56
1484438898.96,4558,5.94,71844.8,-16.53,-17.45,-17.45,0,*5D
1484438900.23,4559,5.94,71846.3,-16.55,-17.41,-17.41,0,*5A
1484438901.51,4560,5.94,71848.3,-16.53,-17.41,-17.41,0,*56
1484438902.8,4561,5.94,71846.8,-16.53,-17.41,-17.41,0,*57
1484438904.09,4562,5.94,71846.5,-16.53,-17.41,-17.45,0,*50
1484438905.35,4563,5.94,71840.8,-16.55,-17.45,-17.41,0,*57
1484438906.64,4564,5.94,71838.8,-16.53,-17.41,-17.45,0,*56
1484438907.93,4565,6.0,71830.8,-16.57,-17.41,-17.45,0,*53
1484438909.19,4566,5.94,71822.0,-16.55,-17.45,-17.45,0,*56
1484438910.45,4567,5.94,71808.5,-16.55,-17.45,-17.45,0,*57
1484438911.72,4568,5.94,71804.5,-16.55,-17.41,-17.41,0,*58
1484438913.01,4569,5.94,71798.0,-16.57,-17.41,-17.41,0,*5B
1484438914.26,4570,5.94,71808.8,-16.55,-17.41,-17.25,0,*53
1484438915.52,4571,5.94,71800.0,-16.55,-17.25,-17.25,0,*50